SCP
0 0 0 0 0 0 0 0 0 0 0 0 0 0 0 0 0 -0 -0 -0 -0 -0 -0 0 0 0 0 0 0 0 0 0 0 0 0 0 0 0
0 0 0 0 0 0 0 0 0 0 0 0 0 0 0 0 0 -0 -0 -0 -0 0 0 0 0 0 0 0 0 0 0 0 0 0 0 0 0 0
0 0 0 0 0 0 0 0 0 0 0 0 0 0 0 0 0 0 0 0 0 0 0 0 0 0 0 0 0 0 0 0 0 0 0 0 0 0
0 0 0 0 0 0 0 0 0 0 0 0 0 0 0 0 0 0 0 0 0 0 0 0 0 0 0 0 0 0 0 0 0 0 0 0 0 0
0 0 0 0 0 0 0 0 0 0 0 0 0 0 0 0 0 0 0 0 0 0 0 0 0 0 0 0 0 0 0 0 0 0 0 0 0 0
0 0 0 0 0 0 0 0 0 -0 -0 0 0 0 0 0 0 0 0 0 0 0 0 0 0 0 0 0 0 0 0 0 0 0 0 0 0 0
0 0 0 0 0 0 0 0 -0 -0 -0 0 0 0 0 0 0 0 0 0 0 0 0 0 0 0 0 0 0 0 0 0 0 0 0 0 0 0
0 0 0 0 0 0 0 0 -0 -0 -0 0 0 0 0 0 0 0 0 0 0 0 0 0 0 0 0 0 0 0 0 0 0 0 0 0 0 0
0 0 0 0 0 0 0 -0 -0 0 -0 -0 0 0 0 0 0 0 0 0 0 0 0 0 0 0 0 0 0 0 0 0 0 0 0 0 0 0
0 -0 0 0 0 0 0 0 0 0 0 0 0 0 0 0 0 0 0 0 0 0 0 0 0 0 0 0 0 0 0 0 0 0 0 0 0 0
0 -0 -0 -0 -0 -0 -0 0 0 0 0 0 0 0 0 0 0 0 0 0 0 0 0 0 0 0 0 0 0 0 0 0 0 0 0 0 0 0
-0 -0 -0 -0 0 0 0 0 0 0 0 0 0 0 0 0 0 0 0 0 0 0 0 0 0 0 0 0 0 0 0 0 0 0 0 0 0 0
0 0 0 0 0 0 0 0 0 0 0 0 0 0 0 0 0 0 0 0 0 0 0 0 0 0 0 0 0 0 0 0 0 0 0 0 0 0
0 0 0 0 0 0 0 0 0 0 0 0 0 0 0 0 0 0 0 0 0 0 0 0 0 0 0 0 0 0 0 0 0 0 0 0 0 0
0 0 0 0 0 0 0 0 0 0 0 0 0 0 0 0 0 0 0 0 0 0 0 0 0 0 0 0 0 0 0 0 0 0 0 0 0 0
0 0 0 0 0 0 0 0 0 0 0 0 0 0 0 0 0 0 0 0 0 0 0 0 0 0 0 0 0 0 0 0 0 0 0 0 0 0
0 0 0 0 0 0 0 0 0 0 0 0 0 0 0 0 0 0 0 0 0 0 0 0 0 0 0 0 0 0 0 0 0 0 0 0 0 0
0 0 0 0 0 0 0 0 0 0 0 0 0 0 0 0 0 0 0 0 0 0 0 0 0 0 0 0 0 0 0 0 0 0 0 0 0 0
0 -0 0 0 0 0 0 0 0 0 0 0 0 0 0 0 0 0 0 0 0 0 0 0 0 0 0 0 0 0 0 0 0 0 0 0 0 0
0 0 0 0 0 0 0 0 0 0 0 -0 0 0 0 0 0 0 0 0 0 0 0 0 0 0 0 0 0 0 0 0 0 0 0 0 0 0
0 0 0 0 0 0 0 0 0 0 0 0 0 0 0 0 0 0 0 0 0 0 0 0 0 0 0 0 0 0 0 0 0 0 0 0 0 0
0 0 0 0 0 0 0 0 0 0 0 0 0 0 0 0 0 0 0 0 0 0 0 0 0 0 0 0 0 0 0 0 0 0 0 0 0 0
0 0 0 0 0 0 0 0 0 0 0 0 0 0 0 0 0 0 0 0 0 0 0 0 0 0 0 0 0 0 0 0 0 0 0 0 0 0
Wind_Speed_500mb
43 40 38 53 62 59 33 37 41 32 22 35 27 33 33 31 29 28 21 15 10 7 5 8 11 13 14 18 20 23 22 21 21 23 25 24 25 29
37 36 38 51 51 43 38 37 24 31 22 31 32 39 36 33 32 26 19 12 11 9 12 15 14 17 20 21 23 23 21 21 25 26 27 29 30 31
39 38 37 49 47 48 44 37 25 24 32 41 43 42 38 32 29 23 17 16 13 16 17 19 21 22 22 23 24 24 23 25 26 26 28 31 31 32
35 35 41 41 37 36 33 26 19 22 21 41 46 43 38 31 23 22 20 21 23 20 21 25 26 26 27 27 26 26 26 26 27 29 33 33 31 32
35 39 41 35 37 37 33 24 25 22 29 30 40 32 30 33 30 29 27 28 25 25 28 30 31 31 31 31 31 29 26 27 30 33 35 34 33 35
38 38 36 34 33 33 28 23 18 24 20 15 20 33 33 33 34 33 31 31 32 32 34 36 36 36 36 36 34 30 29 32 36 39 38 34 33 34
28 32 31 28 27 26 21 20 20 21 22 23 23 29 34 32 33 31 33 34 37 39 41 43 43 44 43 39 35 33 35 37 40 39 37 35 34 35
28 29 30 30 28 25 21 18 16 17 20 21 24 26 26 27 30 32 37 38 39 46 48 52 51 52 49 45 42 39 39 40 39 38 38 37 35 35
24 25 24 20 17 14 14 15 18 20 20 22 24 23 27 27 31 36 41 45 48 49 47 49 56 56 55 52 47 44 42 41 42 40 39 39 37 37
21 19 17 15 14 13 12 13 13 15 16 17 18 21 25 30 35 39 43 48 55 60 57 56 47 57 58 57 54 51 48 46 43 40 41 42 40 38
23 22 21 19 16 14 12 9 7 6 8 11 15 20 24 29 34 39 46 49 52 48 57 57 46 59 50 60 63 60 56 51 46 43 43 44 44 44
23 21 18 14 9 4 2 5 10 13 18 23 28 32 37 40 42 44 47 51 46 38 54 55 50 54 39 55 64 64 62 57 49 46 44 44 47 46
17 15 11 9 10 12 16 20 24 28 33 37 41 45 47 49 50 50 50 51 51 54 45 56 45 48 57 45 39 54 58 54 54 49 44 46 48 49
17 14 15 18 21 26 31 33 37 41 44 47 50 51 51 51 51 52 54 58 60 63 61 66 62 55 65 55 50 44 57 61 55 49 54 53 50 51
23 24 24 27 34 41 43 45 49 52 52 53 53 53 50 50 52 59 59 63 65 67 71 72 73 66 56 59 56 50 47 58 63 53 54 50 49 46
31 32 35 40 45 49 51 50 50 52 50 50 50 52 56 57 58 60 62 62 70 75 73 73 74 73 74 68 64 59 54 53 43 45 52 56 50 42
39 40 43 45 43 42 42 46 49 48 46 48 52 55 55 51 54 54 58 60 61 56 53 50 66 68 78 82 71 65 65 61 55 54 47 49 40 48
51 55 53 39 44 40 36 33 39 39 41 47 52 52 50 53 54 52 53 55 51 47 49 48 59 68 74 80 90 82 64 53 58 54 52 53 42 37
63 48 38 44 38 32 32 38 41 39 46 43 44 41 42 46 46 47 44 37 39 44 49 54 43 50 55 66 62 58 58 70 74 57 60 47 43 42
46 39 35 38 32 25 26 33 29 28 26 36 38 37 38 40 43 42 39 41 42 41 43 41 37 50 50 57 69 62 74 79 71 61 50 33 40 51
33 28 24 20 23 22 13 19 18 23 28 27 29 32 36 40 42 37 34 39 42 37 38 39 36 44 46 54 59 69 75 74 59 54 37 32 39 38
18 19 22 10 3 16 20 12 20 23 24 28 33 37 40 41 38 34 33 33 33 34 38 31 34 45 54 66 79 74 70 60 38 37 34 36 42 40
17 13 9 9 18 26 18 20 21 23 26 27 31 35 38 37 41 42 37 31 33 35 36 43 59 58 53 45 51 48 39 36 31 35 39 35 36 43
Wind_Direction_500mb
191 184 187 179 182 172 165 162 162 154 139 164 162 162 160 162 159 158 166 165 172 198 263 286 281 277 287 297 301 309 310 310 313 319 319 320 329 330
179 184 179 171 165 175 180 187 201 173 154 170 165 160 162 162 164 171 180 190 214 255 277 276 288 282 278 286 303 305 310 314 314 315 320 323 320 317
150 164 168 171 179 182 189 196 199 200 183 167 166 164 164 170 178 184 202 223 241 255 272 280 276 270 278 290 297 303 308 308 304 306 312 310 309 312
152 164 167 171 170 173 173 179 177 180 182 171 172 171 175 183 192 208 220 230 243 262 277 275 270 271 278 289 298 301 300 297 298 304 301 301 303 311
149 158 161 167 164 162 164 177 158 168 183 180 179 181 190 202 209 218 226 236 251 265 265 263 265 272 283 292 294 291 287 289 293 295 296 300 307 314
124 132 139 146 151 148 147 147 144 154 156 163 192 198 206 213 219 226 232 242 250 258 265 267 272 277 281 285 284 281 283 288 289 288 290 296 302 309
129 130 129 133 142 147 155 174 177 178 182 191 204 211 219 224 228 237 241 252 256 264 271 273 273 272 274 276 276 276 278 280 282 286 288 292 300 307
146 152 157 163 167 169 176 178 185 208 217 224 232 240 249 254 255 258 250 256 253 273 271 270 270 270 269 270 272 271 274 278 283 288 288 289 295 304
173 176 180 182 188 193 196 201 205 210 221 235 251 254 259 259 263 265 266 269 269 268 278 270 272 267 268 268 268 269 270 272 275 280 283 286 292 298
185 185 179 177 179 178 185 190 197 211 223 231 236 238 245 252 258 267 270 269 269 272 270 262 258 269 263 265 264 264 266 267 272 280 284 286 289 292
146 145 147 150 154 157 163 170 182 213 245 263 272 276 278 277 274 272 270 267 268 267 274 265 258 269 250 263 261 260 261 263 268 277 283 287 288 288
142 143 145 151 154 163 258 294 297 297 295 294 293 290 288 285 283 279 271 269 266 264 269 269 261 264 253 264 257 259 259 258 264 274 282 286 286 288
170 179 190 214 244 264 276 284 289 291 291 289 288 288 288 287 287 285 280 275 266 264 266 273 260 256 255 256 257 249 255 253 267 276 284 285 282 286
213 228 246 260 278 289 292 293 292 290 290 290 289 291 292 292 292 286 281 277 272 271 263 273 269 261 266 260 252 259 255 263 261 272 285 280 279 287
242 250 268 285 289 290 295 295 295 293 288 285 285 285 286 286 288 286 287 284 280 279 275 272 271 264 259 256 258 258 253 267 260 267 275 276 280 289
270 282 285 284 285 288 292 293 292 289 282 280 284 286 289 291 290 290 288 287 286 282 280 276 274 268 264 262 257 256 259 257 255 261 270 277 278 288
292 295 297 296 296 297 296 293 290 284 280 277 279 288 299 301 301 298 296 294 284 279 279 274 278 278 271 264 257 260 269 252 250 265 265 268 275 291
291 292 295 294 298 292 286 286 290 286 289 296 300 304 307 306 306 303 302 300 291 284 281 280 276 287 280 268 260 259 262 243 261 260 253 266 275 279
298 294 280 282 278 284 285 288 290 295 299 304 310 312 314 314 314 314 314 305 298 297 298 301 285 272 274 273 283 270 258 260 261 252 261 260 276 280
282 278 277 276 274 272 288 294 294 305 320 326 318 313 317 321 322 320 316 313 312 309 304 301 286 286 283 272 282 276 265 263 267 260 265 266 275 285
273 265 263 262 263 261 256 320 319 340 336 327 328 333 333 330 330 326 319 319 322 318 312 311 303 290 291 281 272 267 275 287 276 253 261 270 282 287
236 223 248 232 32 36 16 13 350 356 5 343 337 337 335 331 328 325 324 323 322 318 314 310 303 307 300 301 300 299 293 291 270 261 266 275 285 286
142 105 84 32 32 17 15 360 2 357 1 357 356 351 347 340 335 330 328 327 325 322 314 303 305 306 300 311 312 300 285 278 269 274 273 278 286 289
Wind_Speed_850mb
43 40 38 53 62 59 33 37 41 32 22 35 27 33 33 31 29 28 21 15 10 7 5 8 11 13 14 18 20 23 22 21 21 23 25 24 25 29
37 36 38 51 51 43 38 37 24 31 22 31 32 39 36 33 32 26 19 12 11 9 12 15 14 17 20 21 23 23 21 21 25 26 27 29 30 31
39 38 37 49 47 48 44 37 25 24 32 41 43 42 38 32 29 23 17 16 13 16 17 19 21 22 22 23 24 24 23 25 26 26 28 31 31 32
35 35 41 41 37 36 33 26 19 22 21 41 46 43 38 31 23 22 20 21 23 20 21 25 26 26 27 27 26 26 26 26 27 29 33 33 31 32
35 39 41 35 37 37 33 24 25 22 29 30 40 32 30 33 30 29 27 28 25 25 28 30 31 31 31 31 31 29 26 27 30 33 35 34 33 35
38 38 36 34 33 33 28 23 18 24 20 15 20 33 33 33 34 33 31 31 32 32 34 36 36 36 36 36 34 30 29 32 36 39 38 34 33 34
28 32 31 28 27 26 21 20 20 21 22 23 23 29 34 32 33 31 33 34 37 39 41 43 43 44 43 39 35 33 35 37 40 39 37 35 34 35
28 29 30 30 28 25 21 18 16 17 20 21 24 26 26 27 30 32 37 38 39 46 48 52 51 52 49 45 42 39 39 40 39 38 38 37 35 35
24 25 24 20 17 14 14 15 18 20 20 22 24 23 27 27 31 36 41 45 48 49 47 49 56 56 55 52 47 44 42 41 42 40 39 39 37 37
21 19 17 15 14 13 12 13 13 15 16 17 18 21 25 30 35 39 43 48 55 60 57 56 47 57 58 57 54 51 48 46 43 40 41 42 40 38
23 22 21 19 16 14 12 9 7 6 8 11 15 20 24 29 34 39 46 49 52 48 57 57 46 59 50 60 63 60 56 51 46 43 43 44 44 44
23 21 18 14 9 4 2 5 10 13 18 23 28 32 37 40 42 44 47 51 46 38 54 55 50 54 39 55 64 64 62 57 49 46 44 44 47 46
17 15 11 9 10 12 16 20 24 28 33 37 41 45 47 49 50 50 50 51 51 54 45 56 45 48 57 45 39 54 58 54 54 49 44 46 48 49
17 14 15 18 21 26 31 33 37 41 44 47 50 51 51 51 51 52 54 58 60 63 61 66 62 55 65 55 50 44 57 61 55 49 54 53 50 51
23 24 24 27 34 41 43 45 49 52 52 53 53 53 50 50 52 59 59 63 65 67 71 72 73 66 56 59 56 50 47 58 63 53 54 50 49 46
31 32 35 40 45 49 51 50 50 52 50 50 50 52 56 57 58 60 62 62 70 75 73 73 74 73 74 68 64 59 54 53 43 45 52 56 50 42
39 40 43 45 43 42 42 46 49 48 46 48 52 55 55 51 54 54 58 60 61 56 53 50 66 68 78 82 71 65 65 61 55 54 47 49 40 48
51 55 53 39 44 40 36 33 39 39 41 47 52 52 50 53 54 52 53 55 51 47 49 48 59 68 74 80 90 82 64 53 58 54 52 53 42 37
63 48 38 44 38 32 32 38 41 39 46 43 44 41 42 46 46 47 44 37 39 44 49 54 43 50 55 66 62 58 58 70 74 57 60 47 43 42
46 39 35 38 32 25 26 33 29 28 26 36 38 37 38 40 43 42 39 41 42 41 43 41 37 50 50 57 69 62 74 79 71 61 50 33 40 51
33 28 24 20 23 22 13 19 18 23 28 27 29 32 36 40 42 37 34 39 42 37 38 39 36 44 46 54 59 69 75 74 59 54 37 32 39 38
18 19 22 10 3 16 20 12 20 23 24 28 33 37 40 41 38 34 33 33 33 34 38 31 34 45 54 66 79 74 70 60 38 37 34 36 42 40
17 13 9 9 18 26 18 20 21 23 26 27 31 35 38 37 41 42 37 31 33 35 36 43 59 58 53 45 51 48 39 36 31 35 39 35 36 43
Wind_Direction_850mb
191 184 187 179 182 172 165 162 162 154 139 164 162 162 160 162 159 158 166 165 172 198 263 286 281 277 287 297 301 309 310 310 313 319 319 320 329 330
179 184 179 171 165 175 180 187 201 173 154 170 165 160 162 162 164 171 180 190 214 255 277 276 288 282 278 286 303 305 310 314 314 315 320 323 320 317
150 164 168 171 179 182 189 196 199 200 183 167 166 164 164 170 178 184 202 223 241 255 272 280 276 270 278 290 297 303 308 308 304 306 312 310 309 312
152 164 167 171 170 173 173 179 177 180 182 171 172 171 175 183 192 208 220 230 243 262 277 275 270 271 278 289 298 301 300 297 298 304 301 301 303 311
149 158 161 167 164 162 164 177 158 168 183 180 179 181 190 202 209 218 226 236 251 265 265 263 265 272 283 292 294 291 287 289 293 295 296 300 307 314
124 132 139 146 151 148 147 147 144 154 156 163 192 198 206 213 219 226 232 242 250 258 265 267 272 277 281 285 284 281 283 288 289 288 290 296 302 309
129 130 129 133 142 147 155 174 177 178 182 191 204 211 219 224 228 237 241 252 256 264 271 273 273 272 274 276 276 276 278 280 282 286 288 292 300 307
146 152 157 163 167 169 176 178 185 208 217 224 232 240 249 254 255 258 250 256 253 273 271 270 270 270 269 270 272 271 274 278 283 288 288 289 295 304
173 176 180 182 188 193 196 201 205 210 221 235 251 254 259 259 263 265 266 269 269 268 278 270 272 267 268 268 268 269 270 272 275 280 283 286 292 298
185 185 179 177 179 178 185 190 197 211 223 231 236 238 245 252 258 267 270 269 269 272 270 262 258 269 263 265 264 264 266 267 272 280 284 286 289 292
146 145 147 150 154 157 163 170 182 213 245 263 272 276 278 277 274 272 270 267 268 267 274 265 258 269 250 263 261 260 261 263 268 277 283 287 288 288
142 143 145 151 154 163 258 294 297 297 295 294 293 290 288 285 283 279 271 269 266 264 269 269 261 264 253 264 257 259 259 258 264 274 282 286 286 288
170 179 190 214 244 264 276 284 289 291 291 289 288 288 288 287 287 285 280 275 266 264 266 273 260 256 255 256 257 249 255 253 267 276 284 285 282 286
213 228 246 260 278 289 292 293 292 290 290 290 289 291 292 292 292 286 281 277 272 271 263 273 269 261 266 260 252 259 255 263 261 272 285 280 279 287
242 250 268 285 289 290 295 295 295 293 288 285 285 285 286 286 288 286 287 284 280 279 275 272 271 264 259 256 258 258 253 267 260 267 275 276 280 289
270 282 285 284 285 288 292 293 292 289 282 280 284 286 289 291 290 290 288 287 286 282 280 276 274 268 264 262 257 256 259 257 255 261 270 277 278 288
292 295 297 296 296 297 296 293 290 284 280 277 279 288 299 301 301 298 296 294 284 279 279 274 278 278 271 264 257 260 269 252 250 265 265 268 275 291
291 292 295 294 298 292 286 286 290 286 289 296 300 304 307 306 306 303 302 300 291 284 281 280 276 287 280 268 260 259 262 243 261 260 253 266 275 279
298 294 280 282 278 284 285 288 290 295 299 304 310 312 314 314 314 314 314 305 298 297 298 301 285 272 274 273 283 270 258 260 261 252 261 260 276 280
282 278 277 276 274 272 288 294 294 305 320 326 318 313 317 321 322 320 316 313 312 309 304 301 286 286 283 272 282 276 265 263 267 260 265 266 275 285
273 265 263 262 263 261 256 320 319 340 336 327 328 333 333 330 330 326 319 319 322 318 312 311 303 290 291 281 272 267 275 287 276 253 261 270 282 287
236 223 248 232 32 36 16 13 350 356 5 343 337 337 335 331 328 325 324 323 322 318 314 310 303 307 300 301 300 299 293 291 270 261 266 275 285 286
142 105 84 32 32 17 15 360 2 357 1 357 356 351 347 340 335 330 328 327 325 322 314 303 305 306 300 311 312 300 285 278 269 274 273 278 286 289